{"data":{"norad_id":56886,"intl_designator":"2023-083L","name":"STARLINK-5496","alt_names":[],"object_type":"PAYLOAD","status":"ACTIVE","operator":null,"country":"US","launch_date":"2023-06-12","launch_site_code":"AFETR","launch_vehicle":null,"mission":null,"orbit_class":"UNKNOWN","rcs_meters":null,"size_class":null,"mass_kg":null,"dimensions":null,"purposes":["comms"],"wikipedia_slug":null,"has_3d_model":false,"image_url":null,"decayed_at":null,"tle_current":{"epoch":"2026-09-20T03:29:18.972672Z","epoch_age_seconds":148473,"freshness":"FRESH","line1":"1 56886U 23083L   26263.14535848  .00000519  00000+0  28380-4 0  9995","line2":"2 56886  43.0027  66.6873 0001354 251.3645 108.7060 15.27576134181379","mean_motion":15.27576134,"eccentricity":0.0001354,"inclination_deg":43.0027,"raan_deg":66.6873,"arg_perigee_deg":251.3645,"mean_anomaly_deg":108.706,"bstar":2.838e-5,"rev_number":18137,"period_min":94.266987284576,"perigee_km":482.13166609403,"apogee_km":483.98967842368,"semimajor_km":6861.1976722589,"source":"CELESTRAK","updated_at":"2026-09-21T09:00:33.521353Z"}}}